Wind_Speed
4 4 3 2 7 7 22 12 6 13 16 17 16 13 12 13 16 15 15 14 15 17 14 15 15 15 13 11 9 6 5 5 6 8 10 12 12 13 13 11 12 12 13 13 14 15 17 17 16
4 4 4 3 8 25 18 13 12 10 14 15 18 16 14 15 13 16 14 11 14 18 15 16 16 16 14 12 11 9 7 6 6 7 8 10 12 11 11 10 11 12 12 12 13 13 15 16 14
5 4 5 3 2 4 15 10 14 10 10 12 16 12 16 15 11 14 13 10 14 17 16 15 16 15 14 13 12 11 9 8 8 8 9 10 11 11 10 10 10 10 11 10 9 13 14 15 15
3 4 6 4 7 1 23 4 14 10 10 11 15 12 10 13 13 13 11 11 14 16 15 15 15 14 13 13 13 12 13 11 11 11 11 10 10 10 10 10 11 12 10 10 10 13 14 14 16
5 7 11 8 10 10 8 3 15 13 10 10 13 11 11 10 13 12 11 12 14 14 14 14 14 13 13 13 13 13 14 14 14 12 10 9 10 11 11 10 12 14 15 16 18 15 14 13 15
4 9 4 4 6 9 10 12 9 12 12 10 13 11 10 12 13 9 11 12 11 13 12 12 13 13 13 13 12 12 13 14 14 13 11 11 11 11 10 10 12 13 13 12 14 14 15 15 14
13 7 8 8 8 13 10 14 14 12 15 13 15 11 8 8 12 10 11 12 11 11 11 11 12 12 12 12 11 12 11 11 13 13 12 12 11 10 9 10 11 10 10 9 9 12 15 15 15
4 7 6 12 13 19 14 18 11 17 12 12 16 13 11 7 10 11 11 13 11 10 11 12 12 12 13 12 11 10 10 10 9 9 11 12 12 10 11 10 9 8 8 8 8 10 13 16 15
7 11 11 13 15 6 10 16 29 8 10 9 15 14 12 10 10 11 11 12 11 12 12 13 12 12 13 12 11 10 9 10 9 8 10 12 11 10 11 9 9 7 6 6 13 13 12 16 17
12 15 12 12 15 15 9 12 13 22 10 14 14 13 12 14 10 11 12 11 11 12 12 10 14 14 15 13 12 11 10 9 11 10 10 12 12 12 10 8 9 12 13 17 20 23 16 19 18
12 7 10 11 4 13 15 13 14 14 17 11 19 17 14 11 9 10 11 13 10 13 11 12 11 13 16 14 13 11 11 11 8 10 11 13 11 11 9 8 9 11 15 19 20 21 18 19 18
12 5 7 8 5 9 13 15 15 13 15 12 15 18 18 17 11 9 10 11 10 13 12 13 11 11 16 13 12 14 12 12 9 8 10 12 13 10 10 9 8 13 14 17 20 20 19 18 17
13 9 15 7 9 10 11 11 8 9 19 14 13 15 14 13 10 9 10 11 11 12 13 13 10 10 16 15 14 14 14 14 11 10 11 15 14 11 12 12 13 21 18 17 21 20 19 16 17
16 17 6 5 9 11 9 8 13 17 15 10 9 14 15 14 9 9 10 12 12 11 11 10 9 9 17 16 14 14 15 14 12 11 12 14 13 13 15 17 19 20 19 19 21 19 18 19 20
17 16 13 2 6 4 6 9 4 16 17 13 10 10 14 13 10 7 9 12 13 11 8 10 10 9 15 12 14 12 13 14 10 11 9 11 12 12 18 20 20 21 23 21 19 19 17 20 25
16 12 15 11 10 4 5 3 5 29 22 15 9 10 11 12 11 8 7 11 13 13 7 9 11 11 12 13 12 9 14 13 13 11 9 13 16 14 18 18 20 20 20 19 17 18 19 21 22
15 12 15 11 12 5 7 6 3 24 21 13 9 9 10 11 9 9 5 9 9 12 8 9 10 12 10 15 13 13 15 11 11 11 10 12 14 15 19 22 21 21 20 19 18 18 20 22 21
15 17 16 14 11 14 10 5 3 0 9 8 11 8 8 10 8 11 8 6 8 7 11 8 11 15 10 13 13 13 14 12 12 12 12 10 14 15 16 22 24 24 22 20 20 19 20 22 20
21 23 24 20 16 11 14 5 2 12 13 6 9 10 8 8 7 8 10 7 7 5 8 8 8 12 11 11 13 14 15 12 13 13 12 10 11 13 16 20 21 21 22 21 20 22 21 21 20
26 29 28 25 18 16 7 10 9 8 6 7 9 11 9 8 7 4 6 7 7 6 5 7 6 9 11 9 11 14 13 13 14 12 11 10 9 11 13 16 19 19 18 21 20 21 19 18 19
31 31 29 26 24 24 17 14 15 17 8 13 7 9 15 11 9 6 5 6 8 9 7 7 7 7 9 11 9 11 13 14 14 11 12 10 8 10 11 13 15 18 17 17 18 18 18 17 18
35 30 31 31 24 27 8 14 23 19 20 16 10 11 8 13 10 10 8 8 9 11 9 8 9 7 8 9 10 9 11 12 14 13 10 11 11 9 11 12 12 13 14 14 15 15 16 17 18
32 32 31 23 16 18 14 11 11 19 19 13 12 14 14 17 16 15 13 12 11 11 12 10 9 9 7 7 10 11 12 11 11 14 12 11 12 11 9 10 11 11 12 13 13 14 15 16 17
37 38 33 29 26 26 16 14 15 18 13 13 6 7 8 21 17 20 20 15 13 12 13 12 12 11 9 9 9 9 10 10 10 12 13 10 12 12 11 11 11 12 12 10 12 12 14 14 15
46 42 35 31 24 15 18 19 21 10 7 5 9 14 13 8 18 22 16 15 14 15 15 16 16 15 13 10 10 10 9 11 11 9 10 11 10 12 13 12 12 10 10 11 10 10 14 14 12
50 45 37 33 23 13 17 17 17 17 15 14 10 14 17 16 17 21 23 21 21 20 20 18 19 19 18 15 13 12 14 12 11 8 8 9 10 10 11 13 14 13 9 10 12 11 12 13 11
50 45 37 31 24 25 20 20 21 20 16 14 12 8 16 10 18 15 18 23 23 22 21 22 23 22 22 21 17 16 15 14 14 13 10 8 7 9 9 10 11 14 14 9 10 11 12 11 11
43 47 36 33 28 24 24 20 24 26 24 21 20 15 9 14 21 10 9 14 25 27 24 26 25 25 27 27 24 20 16 16 17 16 14 11 10 8 8 8 10 10 12 13 11 10 10 10 10
41 51 45 37 34 24 29 30 27 27 25 25 22 17 13 17 14 18 19 18 25 30 30 30 28 25 25 26 26 25 23 21 20 18 17 14 12 11 11 8 8 9 9 11 11 12 11 10 9
43 46 48 40 36 33 26 34 30 28 26 22 23 21 20 23 20 20 20 13 30 39 32 34 30 28 26 27 26 25 25 23 23 24 21 20 18 16 13 12 9 9 9 8 9 11 12 13 12
Wind_Direction
271 247 208 227 238 135 127 142 92 91 94 114 99 99 125 127 123 100 89 97 97 95 95 96 91 91 85 78 79 82 98 104 102 97 94 93 86 90 92 96 101 103 105 102 100 106 110 111 113
244 224 175 139 354 137 142 146 155 89 99 105 111 117 119 126 117 108 99 88 96 96 97 96 95 90 88 86 80 79 81 92 103 101 100 96 92 92 91 94 99 101 101 104 102 108 112 111 107
230 218 185 165 318 305 167 102 111 97 102 98 102 105 114 117 108 99 99 97 93 91 94 93 91 86 79 71 75 81 85 87 103 111 100 91 89 91 97 98 100 98 98 102 105 111 106 107 104
192 238 217 201 199 87 156 74 130 116 100 113 110 117 113 124 114 105 102 97 90 88 87 88 88 85 79 74 73 81 89 91 94 101 103 95 92 96 100 103 102 106 92 122 108 117 110 107 100
233 288 231 183 213 217 218 160 121 116 108 120 121 125 119 121 115 112 103 89 92 86 86 83 88 84 73 68 75 84 90 95 98 97 96 93 97 99 106 109 108 107 99 113 111 108 104 103 95
276 284 135 219 248 182 179 182 131 128 116 141 122 129 129 139 122 126 103 96 93 91 85 80 82 82 75 66 72 83 86 92 97 100 100 96 94 96 104 111 115 113 108 114 118 116 116 108 102
37 101 157 191 220 193 233 192 173 159 141 153 128 133 129 153 122 128 107 99 93 91 85 82 80 76 69 68 75 83 90 101 101 99 96 95 96 102 106 112 118 125 115 112 118 120 107 107 101
247 262 107 171 180 209 202 182 219 148 139 155 135 136 139 139 131 122 106 96 92 86 80 70 68 69 66 68 75 84 83 89 98 99 97 93 94 102 109 115 119 114 113 123 133 123 110 105 100
246 137 124 116 145 172 213 208 177 205 148 162 132 135 151 135 139 122 111 105 100 87 89 83 78 78 78 68 70 78 82 76 86 97 102 102 97 92 106 117 119 105 90 85 138 136 123 112 104
233 315 111 120 143 184 198 212 219 194 175 158 137 135 133 153 149 134 113 110 98 94 90 86 75 74 84 67 66 70 78 83 89 100 106 101 101 101 119 116 99 112 97 96 106 118 114 107 97
239 285 100 109 131 154 184 200 219 155 141 151 147 144 136 143 143 134 111 99 104 99 97 80 78 79 79 73 64 66 67 79 91 96 106 96 104 108 123 101 106 119 104 113 108 111 115 112 105
219 327 130 73 105 153 164 193 223 210 182 192 166 148 147 150 148 126 119 119 103 102 92 85 78 85 84 77 64 63 73 77 84 93 107 105 104 100 97 86 110 128 123 118 112 111 115 106 109
214 216 120 83 127 141 155 186 201 214 172 180 157 144 143 133 136 141 132 116 95 96 91 83 90 95 94 87 75 68 69 76 80 87 103 102 106 104 96 92 82 127 122 119 114 111 109 106 114
223 217 153 10 115 115 110 174 186 188 167 168 149 153 144 136 143 153 139 123 105 91 87 92 90 85 86 86 85 79 79 83 83 93 112 105 110 99 93 98 106 122 120 118 115 110 115 116 121
230 229 166 182 139 84 134 150 207 186 192 180 165 158 137 137 159 155 153 127 112 108 97 96 94 84 87 90 82 87 84 81 92 90 106 119 111 97 97 105 110 115 116 117 112 115 119 119 126
226 237 224 177 180 191 226 155 194 167 157 170 168 152 126 147 149 160 161 124 117 111 107 86 100 87 91 95 85 79 94 84 77 90 104 101 108 108 98 96 105 114 114 114 117 115 114 120 124
219 217 215 197 196 210 244 289 6 167 162 153 169 167 144 139 150 150 170 120 120 117 114 98 109 97 100 98 97 96 80 81 73 92 105 111 113 111 114 115 116 117 119 122 117 113 116 124 128
206 207 209 217 228 215 238 278 326 310 147 169 194 185 162 145 163 147 161 146 135 132 130 139 120 114 106 93 93 88 84 82 87 84 103 113 123 123 118 115 115 117 115 113 110 111 118 125 129
208 215 208 212 232 235 224 181 168 169 167 168 202 197 176 166 159 141 160 172 148 154 147 135 121 118 118 105 106 101 91 92 82 84 88 110 120 125 123 120 120 117 118 115 117 121 126 130 132
205 218 228 210 207 228 241 260 204 200 164 181 196 207 196 179 160 165 160 182 177 171 163 142 139 126 133 123 115 107 98 88 81 80 89 94 121 128 130 126 123 125 121 122 126 128 132 135 135
204 219 222 223 216 189 211 240 213 202 222 201 193 203 206 190 170 168 174 208 190 194 181 171 164 149 152 145 128 110 112 100 92 88 95 100 99 121 124 127 132 132 135 128 128 136 138 138 137
205 215 226 232 235 242 258 229 231 224 208 188 211 211 193 193 191 178 183 211 204 203 203 186 177 173 167 160 140 143 118 111 103 104 98 93 99 108 122 132 137 142 135 131 135 140 143 142 145
194 205 212 222 240 243 236 255 243 187 197 172 185 198 202 205 198 194 203 214 216 203 206 201 192 179 185 166 161 152 132 118 114 112 104 103 105 107 110 133 137 139 140 144 141 146 151 149 150
190 197 203 213 229 235 243 225 195 212 269 159 169 228 229 197 199 212 204 215 224 207 206 202 201 187 187 187 183 165 155 135 130 123 115 111 109 110 113 111 126 127 141 149 145 148 146 152 151
189 198 202 208 222 223 246 235 220 216 233 235 272 271 215 197 186 204 203 206 218 211 206 204 200 195 186 194 193 186 188 155 146 136 127 123 118 118 119 117 117 131 143 144 141 152 144 156 150
188 198 202 206 210 192 220 223 189 200 212 225 244 245 212 211 207 205 212 212 210 208 210 210 203 200 191 190 198 196 200 182 167 158 156 140 141 134 127 134 130 126 137 141 137 146 143 153 151
189 195 199 206 188 182 218 217 210 210 219 240 241 239 178 246 232 205 224 223 227 219 217 215 207 206 203 194 190 204 207 191 185 177 179 169 153 150 145 143 140 137 137 146 143 150 150 153 155
202 203 195 199 183 196 217 226 226 221 222 228 233 246 264 268 283 246 275 234 216 230 223 219 215 213 211 200 194 196 202 201 198 188 191 186 186 172 171 154 150 147 147 152 159 150 155 159 162
199 204 203 204 193 203 220 229 228 225 227 231 235 248 246 233 254 265 257 248 249 232 229 226 221 210 223 220 210 199 197 202 197 196 196 203 200 193 201 189 164 157 168 165 167 173 171 169 176
203 203 201 202 199 205 219 226 234 237 230 228 242 241 231 244 251 247 245 245 238 245 236 210 215 209 209 223 220 216 215 209 199 193 198 203 204 201 203 203 192 173 179 181 183 186 188 190 194
Height
5895 5895 5895 5894 5894 5891 5891 5894 5895 5897 5896 5895 5894 5896 5899 5901 5901 5903 5900 5900 5900 5899 5900 5900 5900 5900 5900 5900 5900 5899 5899 5899 5899 5900 5900 5902 5902 5902 5902 5902 5902 5902 5902 5903 5904 5904 5904 5904 5905
5895 5895 5895 5894 5892 5887 5893 5896 5899 5897 5896 5896 5897 5900 5902 5904 5903 5901 5902 5903 5902 5900 5902 5903 5902 5903 5902 5902 5901 5900 5900 5900 5901 5901 5902 5902 5903 5903 5903 5902 5903 5903 5904 5904 5904 5905 5906 5906 5906
5896 5895 5896 5895 5894 5891 5894 5896 5900 5897 5895 5897 5898 5901 5902 5905 5905 5903 5904 5905 5903 5903 5904 5904 5904 5904 5904 5904 5903 5902 5901 5901 5902 5903 5903 5904 5904 5904 5905 5905 5905 5904 5905 5905 5905 5906 5907 5907 5909
5896 5896 5896 5896 5895 5896 5895 5897 5899 5900 5900 5900 5902 5903 5904 5905 5904 5905 5906 5906 5905 5905 5906 5906 5906 5907 5907 5906 5905 5904 5903 5903 5903 5904 5904 5905 5905 5906 5906 5905 5905 5905 5905 5905 5906 5908 5910 5910 5910
5895 5893 5890 5891 5896 5897 5896 5898 5901 5902 5904 5904 5905 5906 5906 5905 5906 5907 5907 5908 5907 5907 5907 5908 5909 5908 5908 5908 5906 5906 5906 5905 5905 5906 5906 5906 5907 5907 5907 5907 5907 5906 5906 5906 5908 5909 5911 5912 5911
5895 5892 5892 5893 5893 5892 5897 5900 5903 5903 5905 5905 5906 5907 5909 5906 5908 5909 5909 5908 5908 5909 5910 5910 5911 5909 5909 5909 5909 5908 5908 5908 5908 5908 5908 5908 5909 5910 5910 5910 5909 5909 5909 5910 5911 5911 5913 5913 5914
5893 5892 5892 5893 5895 5894 5896 5898 5901 5905 5905 5906 5906 5908 5911 5908 5909 5910 5910 5909 5910 5911 5912 5912 5912 5912 5911 5911 5911 5910 5910 5910 5910 5910 5911 5911 5912 5912 5912 5911 5911 5911 5911 5912 5912 5912 5914 5914 5916
5893 5892 5891 5893 5894 5896 5896 5891 5897 5905 5905 5907 5907 5908 5912 5911 5912 5912 5912 5910 5913 5914 5915 5914 5914 5914 5913 5913 5912 5912 5911 5912 5912 5912 5912 5914 5914 5913 5914 5914 5912 5912 5912 5913 5914 5916 5916 5917 5918
5892 5875 5887 5890 5893 5897 5898 5899 5898 5901 5904 5909 5910 5911 5913 5911 5913 5915 5914 5914 5915 5917 5916 5915 5915 5916 5915 5915 5914 5914 5914 5913 5914 5914 5914 5914 5915 5915 5916 5915 5914 5914 5914 5913 5914 5917 5919 5920 5921
5891 5889 5881 5892 5894 5894 5897 5898 5899 5902 5904 5906 5910 5915 5916 5915 5914 5916 5916 5917 5918 5918 5918 5917 5917 5917 5917 5917 5916 5916 5916 5916 5915 5916 5916 5917 5917 5917 5916 5916 5916 5915 5916 5917 5919 5920 5923 5924 5924
5894 5896 5890 5891 5893 5893 5896 5898 5899 5902 5905 5907 5907 5913 5916 5917 5916 5918 5918 5918 5920 5920 5919 5918 5919 5919 5919 5920 5919 5919 5918 5918 5918 5918 5919 5920 5919 5919 5917 5918 5918 5918 5919 5920 5922 5925 5925 5927 5928
5895 5895 5894 5888 5893 5892 5895 5899 5900 5903 5905 5908 5910 5910 5913 5917 5916 5918 5918 5919 5922 5922 5921 5921 5920 5922 5921 5922 5923 5921 5921 5921 5921 5921 5922 5923 5921 5921 5921 5919 5919 5920 5921 5922 5925 5929 5930 5930 5931
5896 5895 5891 5892 5894 5895 5895 5897 5899 5902 5908 5908 5909 5909 5912 5913 5917 5920 5922 5920 5923 5924 5921 5922 5923 5925 5923 5925 5925 5924 5923 5923 5924 5924 5924 5926 5925 5924 5924 5921 5919 5923 5924 5925 5927 5931 5934 5934 5935
5893 5894 5892 5892 5896 5896 5895 5897 5899 5901 5904 5905 5908 5910 5914 5914 5918 5921 5923 5921 5923 5924 5925 5926 5927 5927 5925 5926 5926 5925 5924 5926 5926 5927 5928 5929 5928 5926 5925 5925 5924 5926 5927 5929 5930 5933 5936 5938 5939
5890 5891 5892 5895 5897 5897 5896 5894 5896 5898 5902 5905 5908 5911 5913 5915 5919 5922 5923 5923 5924 5925 5927 5929 5930 5929 5927 5927 5926 5927 5928 5928 5928 5929 5931 5932 5931 5930 5928 5927 5928 5930 5930 5932 5934 5936 5940 5940 5941
5889 5891 5890 5893 5890 5898 5894 5893 5893 5896 5901 5905 5909 5911 5913 5917 5918 5922 5922 5924 5925 5927 5929 5931 5931 5930 5930 5931 5931 5931 5931 5931 5930 5931 5932 5933 5935 5934 5931 5929 5931 5933 5934 5935 5937 5939 5941 5942 5944
5888 5890 5889 5891 5892 5896 5895 5898 5899 5897 5903 5904 5909 5912 5916 5920 5920 5923 5922 5923 5927 5929 5930 5933 5932 5932 5933 5934 5934 5935 5932 5933 5934 5934 5933 5935 5937 5938 5936 5935 5936 5937 5938 5939 5940 5941 5942 5944 5947
5887 5886 5886 5888 5882 5889 5894 5897 5899 5901 5907 5908 5910 5915 5918 5919 5922 5925 5923 5924 5927 5930 5932 5935 5935 5935 5934 5935 5935 5935 5935 5936 5936 5936 5936 5938 5940 5941 5941 5939 5938 5940 5942 5942 5943 5944 5946 5948 5950
5881 5881 5880 5885 5888 5880 5888 5895 5898 5901 5903 5908 5912 5915 5917 5918 5920 5924 5926 5925 5927 5929 5932 5934 5935 5937 5936 5936 5938 5938 5938 5940 5939 5939 5940 5940 5942 5942 5943 5942 5942 5942 5943 5945 5946 5947 5950 5951 5953
5876 5876 5879 5884 5883 5888 5891 5889 5896 5898 5901 5907 5911 5913 5915 5917 5918 5921 5925 5926 5929 5929 5930 5934 5936 5938 5940 5938 5939 5940 5941 5941 5941 5942 5942 5943 5944 5945 5945 5945 5944 5945 5947 5947 5949 5950 5952 5954 5956
5872 5873 5878 5880 5882 5882 5884 5891 5892 5893 5898 5903 5906 5909 5912 5916 5919 5920 5923 5925 5927 5929 5930 5932 5937 5939 5941 5941 5941 5942 5943 5943 5944 5946 5946 5946 5946 5947 5947 5947 5948 5948 5948 5950 5951 5953 5955 5957 5959
5868 5873 5873 5874 5877 5876 5883 5890 5892 5895 5892 5898 5902 5907 5910 5913 5917 5919 5921 5924 5926 5929 5931 5933 5936 5940 5941 5943 5944 5944 5944 5944 5946 5947 5949 5949 5949 5949 5949 5949 5950 5952 5952 5953 5953 5955 5957 5959 5960
5869 5868 5869 5872 5872 5876 5883 5890 5891 5894 5895 5896 5900 5904 5907 5911 5914 5917 5921 5922 5925 5928 5929 5933 5935 5939 5941 5943 5945 5946 5945 5947 5948 5948 5950 5952 5951 5951 5951 5952 5952 5953 5955 5955 5956 5956 5959 5962 5963
5862 5862 5866 5867 5870 5875 5882 5886 5888 5893 5892 5890 5897 5901 5903 5907 5908 5914 5917 5920 5923 5925 5926 5931 5933 5937 5939 5941 5943 5945 5945 5947 5949 5949 5950 5951 5951 5952 5953 5954 5954 5954 5955 5957 5958 5959 5961 5964 5965
5852 5855 5859 5865 5866 5875 5875 5879 5889 5890 5891 5893 5897 5899 5901 5903 5906 5909 5912 5917 5920 5923 5923 5927 5930 5934 5937 5938 5941 5943 5944 5946 5948 5949 5949 5951 5952 5952 5952 5954 5954 5956 5957 5958 5959 5961 5963 5964 5966
5847 5851 5855 5859 5866 5871 5870 5877 5883 5884 5887 5890 5894 5898 5898 5901 5903 5907 5911 5913 5915 5919 5921 5925 5928 5930 5934 5936 5938 5943 5943 5946 5947 5949 5951 5951 5951 5953 5955 5955 5954 5955 5958 5959 5959 5961 5963 5964 5966
5844 5846 5853 5857 5863 5862 5865 5870 5876 5880 5884 5888 5895 5897 5897 5898 5898 5904 5908 5911 5915 5917 5920 5921 5924 5927 5930 5933 5936 5938 5941 5945 5947 5948 5950 5952 5953 5953 5954 5955 5956 5955 5956 5959 5960 5962 5963 5964 5966
5845 5847 5850 5853 5858 5860 5862 5864 5868 5875 5881 5886 5890 5893 5895 5897 5897 5897 5903 5908 5910 5913 5916 5917 5920 5924 5924 5927 5931 5935 5940 5943 5945 5946 5947 5950 5954 5954 5955 5955 5955 5957 5956 5957 5959 5962 5963 5964 5965
5834 5838 5845 5849 5854 5854 5857 5858 5861 5867 5875 5881 5885 5887 5891 5893 5895 5898 5900 5902 5905 5904 5905 5913 5916 5919 5924 5927 5929 5931 5935 5938 5942 5945 5945 5946 5949 5952 5955 5955 5955 5955 5957 5958 5959 5961 5962 5963 5965
5827 5835 5840 5843 5848 5850 5850 5853 5855 5863 5871 5877 5880 5883 5886 5887 5892 5894 5896 5896 5900 5901 5901 5907 5909 5915 5918 5923 5926 5929 5933 5934 5938 5941 5943 5945 5947 5949 5951 5953 5952 5954 5955 5957 5959 5960 5961 5961 5963